[[{"header":{"parameterUnit":"m.s-1","parameterCategory":1,"la1":30.2991,"la2":30.254,"lo1":-89.0895,"lo2":-89.0444,"dy":0.0017,"dx":0.0017,"nx":28,"ny":28,"refTime":"2023-10-24T09:00:00:Z","depth":0,"parameterNumber":2,"parameterNumberName":"U-component_of_WINDS"},"data":[0,0,0,0,0,0,0,0,0,0,0,0,0,0,0,0,0,0,0,0,0,0,0,0,0,0,0,0,0,0,0,0,0,0,0,0,0,0,0,0,0,0,0,0,0,0,0,0,0,0,0,0,0,0,0,0,0,0,-4.2869,-4.287,0,-4.2939,-4.294,-4.2941,-4.2814,-4.281,-4.2806,-4.2802,-4.2875,-4.2881,-4.2887,0,0,0,0,0,0,0,0,0,0,0,0,0,-4.2627,-4.2633,-4.2869,-4.287,-4.2871,-4.2939,-4.294,-4.2941,-4.2815,-4.281,-4.2805,-4.28,-4.2873,-4.288,-4.2887,0,0,0,0,0,0,0,0,0,0,0,0,0,-4.2719,-4.2634,-4.2869,-4.2816,-4.2812,-4.2939,-4.294,-4.2941,-4.2816,-4.281,-4.2803,-4.2797,-4.2871,-4.288,-4.2888,-4.3071,0,0,-4.2916,-4.2919,0,0,0,0,0,0,0,0,-4.2714,-4.2728,-4.2823,-4.282,-4.2815,-4.2861,-4.2882,-4.2985,-4.2818,-4.2815,-4.2802,-4.2794,-4.2876,-4.2884,-4.2911,-4.3074,-4.3077,-4.2916,-4.2922,-4.2926,-4.2928,0,0,0,0,0,0,0,-4.2707,-4.2724,-4.2897,-4.2824,-4.282,-4.2789,-4.2795,-4.2901,-4.288,-4.2814,-4.2805,-4.2815,-4.2873,-4.2903,-4.2912,-4.3078,-4.2916,-4.2924,-4.2929,-4.2933,-4.3395,-4.3402,0,0,0,0,0,0,-4.2707,-4.2719,-4.2894,-4.2899,-4.2748,-4.2799,-4.2805,-4.2853,-4.2879,-4.2876,-4.2821,-4.2809,-4.2891,-4.2902,-4.2914,-4.313,-4.2925,-4.2934,-4.2939,-4.3388,-4.3397,-4.3404,0,0,0,0,0,0,-4.2703,-4.2724,-4.2892,-4.2807,-4.2826,-4.281,-4.2864,-4.2858,-4.2888,-4.2883,-4.2879,-4.2855,-4.2886,-4.2902,-4.3033,-4.3131,-4.2938,-4.2946,-4.338,-4.3391,-4.3401,-4.3563,0,0,0,0,0,0,-4.2696,-4.2723,-4.2792,-4.2809,-4.2831,-4.3009,-4.287,-4.2864,-4.2903,-4.2889,-4.2915,-4.2913,-4.2883,-4.302,-4.3042,-4.314,-4.2953,-4.3371,-4.3385,-4.3397,-4.3549,-4.3578,-4.3603,0,0,0,0,0,-4.2688,-4.2835,-4.2796,-4.2818,-4.2916,-4.3015,-4.3027,-4.2989,-4.2912,-4.2981,-4.2978,-4.2912,-4.3116,-4.3035,-4.3058,-4.316,-4.3365,-4.3381,-4.3396,-4.3537,-4.3572,-4.3602,0,0,0,0,0,0,-4.283,-4.2836,-4.2793,-4.295,-4.2983,-4.2993,-4.3079,-4.3027,-4.3083,-4.3067,-4.3018,-4.3025,-4.3167,-4.3176,-4.3085,-4.3338,-4.3228,-4.3249,-4.3327,-4.336,-4.3387,-4.3382,-4.296,0,0,0,0,0,-4.2879,-4.2959,-4.296,-4.3098,-4.3117,-4.3096,-4.3137,-4.3105,-4.3137,-4.3151,-4.3157,-4.3192,-4.3264,-4.3312,-4.3378,-4.3549,-4.3554,-4.3631,-4.3658,-4.368,-4.3699,-4.3792,-4.3827,-4.3456,-4.3456,-4.3455,0,0,-4.2982,-4.2996,-4.3049,-4.3127,-4.3148,-4.3233,-4.3108,-4.3202,-4.3264,-4.3165,-4.329,-4.3296,-4.3331,-4.3484,-4.3551,-4.3496,-4.3802,-4.37,-4.3717,-4.3725,-4.3812,-4.3847,-4.3878,-4.3466,-4.3465,-4.3463,0,0,-4.3213,-4.3231,-4.3348,-4.3373,-4.3407,-4.3392,-4.3421,-4.344,-4.344,-4.3564,-4.3492,-4.3565,-4.369,-4.3718,-4.3749,-4.3992,-4.3934,-4.4015,-4.4156,-4.4247,-4.4276,-4.4302,-4.439,-4.4422,-4.4034,-4.4034,-4.4035,0,-4.3337,-4.346,-4.3415,-4.3515,-4.3552,-4.3466,-4.3585,-4.3611,-4.3666,-4.3694,-4.3631,-4.3786,-4.3804,-4.3963,-4.4022,-4.4049,-4.4081,-4.4012,-4.4275,-4.43,-4.4324,-4.4407,-4.4441,-4.4044,-4.4043,-4.4042,-4.4041,0,-4.3612,-4.3699,-4.3789,-4.3845,-4.3892,-4.4001,-4.3973,-4.4026,-4.399,-4.3982,-4.4111,-4.4129,-4.4197,-4.4232,-4.4198,-4.4387,-4.4352,-4.4283,-4.4171,-4.437,-4.4447,-4.4479,-4.4058,-4.4055,-4.4052,-4.4049,0,0,-4.3934,-4.3963,-4.3998,-4.4022,-4.4054,-4.4121,-4.4226,-4.4293,-4.4341,-4.4381,-4.4469,-4.4577,-4.4514,-4.455,-4.4517,-4.4597,-4.479,-4.4518,-4.4519,-4.457,-4.5002,-4.5054,-4.5092,-4.4751,-4.4757,-4.4762,-4.4999,0,-4.4165,-4.4346,-4.4309,-4.4488,-4.4568,-4.4488,-4.4579,-4.461,-4.4606,-4.4674,-4.4668,-4.4747,-4.4656,-4.4677,-4.4753,-4.4751,-4.4877,-4.4733,-4.4834,-4.4839,-4.483,-4.5132,-4.5188,-4.5411,-4.5029,-4.5034,-4.5038,0,-4.4458,-4.451,-4.4697,-4.4717,-4.4749,-4.4833,-4.4891,-4.4957,-4.499,-4.4981,-4.5022,-4.4975,-4.508,-4.4967,-4.5113,-4.5016,-4.5055,-4.5061,-4.5068,-4.5078,-4.4951,-4.5151,-4.5481,-4.5515,-4.5085,-4.5081,-4.5078,0,-4.4677,-4.4793,-4.492,-4.4943,-4.497,-4.503,-4.5044,-4.5071,-4.5114,-4.5166,-4.5193,-4.5257,-4.5292,-4.5343,-4.5315,-4.5234,-4.5466,-4.535,-4.5463,-4.5464,-4.5517,-4.5514,-4.5859,-4.554,-4.554,-4.5539,-4.5538,0,-4.4938,-4.5056,-4.5018,-4.5097,-4.5227,-4.5183,-4.5313,-4.5317,-4.5342,-4.5421,-4.5354,-4.543,-4.5387,-4.5459,-4.5438,-4.5563,-4.5579,-4.5576,-4.5569,-4.5583,-4.5584,-4.5609,-4.5593,-4.5548,-4.5546,-4.5544,-4.5543,0,-4.5205,-4.5184,-4.5317,-4.5332,-4.5338,-4.5434,-4.5446,-4.5519,-4.551,-4.561,-4.5631,-4.5617,-4.5699,-4.5675,-4.5764,-4.5749,-4.5908,-4.5881,-4.5898,-4.5891,-4.6006,-4.5997,-4.6381,-4.643,-4.6078,-4.6081,-4.6084,0,-4.5374,-4.5463,-4.5487,-4.5534,-4.5553,-4.5631,-4.5674,-4.5636,-4.5684,-4.5729,-4.5798,-4.5873,-4.5932,-4.6066,-4.6064,-4.6132,-4.6107,-4.6237,-4.6116,-4.6128,-4.6111,-4.6106,-4.6116,-4.6261,-4.6265,-4.6269,-4.6271,0,-4.5677,-4.5663,-4.5728,-4.5791,-4.5845,-4.5892,-4.5933,-4.5976,-4.594,-4.5998,-4.6081,-4.6126,-4.6217,-4.6293,-4.6355,-4.637,-4.6316,-4.6309,-4.6339,-4.6355,-4.6361,-4.6361,-4.5964,-4.6301,-4.6298,-4.6295,-4.6294,-4.6293,-4.5901,-4.5976,-4.6006,-4.6081,-4.6108,-4.6148,-4.6219,-4.6218,-4.6286,-4.6357,-4.633,-4.6425,-4.6457,-4.6534,-4.6557,-4.6632,-4.6582,-4.6626,-4.6637,-4.6649,-4.6664,-4.6348,-4.6643,-4.6642,-4.6641,-4.6641,-4.664,0,-4.6201,-4.6216,-4.6286,-4.6346,-4.6406,-4.6349,-4.6392,-4.6446,-4.6531,-4.6565,-4.6624,-4.672,-4.6794,-4.6798,-4.6868,-4.6927,-4.6904,-4.6947,-4.6943,-4.6948,-4.6703,-4.6671,-4.6965,-4.6964,-4.6964,-4.6964,-4.6964,-4.6964,-4.6365,-4.649,-4.648,-4.6619,-4.6632,-4.6725,-4.6755,-4.6793,-4.682,-4.693,-4.6991,-4.6993,-4.7016,-4.7087,-4.7153,-4.7152,-4.7181,-4.7234,-4.7225,-4.6997,-4.6965,-4.6934,-4.6903,-4.7241,-4.7241,-4.7463,-4.7465,-4.7466]},{"header":{"parameterUnit":"m.s-1","parameterCategory":1,"la1":30.2991,"la2":30.254,"lo1":-89.0895,"lo2":-89.0444,"dy":0.0017,"dx":0.0017,"nx":28,"ny":28,"refTime":"2023-10-24T09:00:00:Z","depth":0,"parameterNumber":3,"parameterNumberName":"V-component_of_WINDS"},"data":[0,0,0,0,0,0,0,0,0,0,0,0,0,0,0,0,0,0,0,0,0,0,0,0,0,0,0,0,0,0,0,0,0,0,0,0,0,0,0,0,0,0,0,0,0,0,0,0,0,0,0,0,0,0,0,0,0,0,-1.1933,-1.1934,0,-1.1988,-1.1989,-1.199,-1.2023,-1.2023,-1.2024,-1.2024,-1.2078,-1.208,-1.2081,0,0,0,0,0,0,0,0,0,0,0,0,0,-1.1855,-1.1856,-1.1933,-1.1934,-1.1935,-1.1988,-1.1989,-1.199,-1.2023,-1.2023,-1.2024,-1.2024,-1.2078,-1.208,-1.2081,0,0,0,0,0,0,0,0,0,0,0,0,0,-1.1897,-1.1856,-1.1933,-1.1958,-1.1961,-1.1988,-1.1989,-1.199,-1.2023,-1.2023,-1.2024,-1.2024,-1.2078,-1.2079,-1.2081,-1.2088,0,0,-1.2087,-1.2088,0,0,0,0,0,0,0,0,-1.1895,-1.19,-1.1954,-1.1956,-1.1959,-1.1999,-1.1981,-1.2023,-1.2023,-1.1999,-1.2024,-1.2024,-1.2052,-1.2056,-1.2066,-1.209,-1.2093,-1.2087,-1.2089,-1.2089,-1.209,0,0,0,0,0,0,0,-1.1892,-1.1898,-1.1955,-1.1954,-1.1958,-1.1965,-1.1972,-1.1989,-1.2023,-1.2002,-1.2004,-1.201,-1.2053,-1.2064,-1.2067,-1.2094,-1.2087,-1.2089,-1.209,-1.2091,-1.2125,-1.2125,0,0,0,0,0,0,-1.1885,-1.1895,-1.1953,-1.1957,-1.1927,-1.1967,-1.1974,-1.1986,-1.2023,-1.2029,-1.201,-1.2012,-1.206,-1.2065,-1.2069,-1.2078,-1.2089,-1.2091,-1.2092,-1.2125,-1.2125,-1.2125,0,0,0,0,0,0,-1.1883,-1.189,-1.1951,-1.1927,-1.1935,-1.1968,-1.1981,-1.1987,-1.1997,-1.203,-1.2036,-1.2014,-1.2061,-1.2066,-1.2083,-1.2081,-1.2092,-1.2094,-1.2125,-1.2125,-1.2125,-1.2097,0,0,0,0,0,0,-1.1881,-1.1889,-1.1893,-1.1926,-1.1936,-1.1964,-1.1981,-1.1988,-1.2001,-1.2003,-1.2035,-1.2041,-1.2061,-1.208,-1.2085,-1.2083,-1.2095,-1.2126,-1.2125,-1.2125,-1.2098,-1.2095,-1.2093,0,0,0,0,0,-1.1878,-1.1883,-1.1893,-1.19,-1.1941,-1.1964,-1.197,-1.1994,-1.2,-1.2004,-1.2024,-1.204,-1.208,-1.2081,-1.2087,-1.2086,-1.2126,-1.2125,-1.2125,-1.2099,-1.2096,-1.2093,0,0,0,0,0,0,-1.1847,-1.1888,-1.1899,-1.1915,-1.1936,-1.197,-1.1975,-1.199,-1.2009,-1.201,-1.2039,-1.2045,-1.2059,-1.2074,-1.2075,-1.2094,-1.2105,-1.2105,-1.2083,-1.208,-1.2078,-1.2074,-1.2097,0,0,0,0,0,-1.1843,-1.1859,-1.1893,-1.1903,-1.1913,-1.1942,-1.1953,-1.1969,-1.1992,-1.2001,-1.2023,-1.2044,-1.2061,-1.2072,-1.2089,-1.21,-1.2107,-1.2103,-1.21,-1.2098,-1.2098,-1.2104,-1.2102,-1.2123,-1.2123,-1.2123,0,0,-1.1833,-1.1857,-1.1865,-1.1898,-1.1916,-1.1931,-1.1949,-1.1965,-1.1976,-1.2003,-1.202,-1.2036,-1.2061,-1.2075,-1.2082,-1.2088,-1.2094,-1.2098,-1.2096,-1.2097,-1.2103,-1.2101,-1.2099,-1.2122,-1.2122,-1.2122,0,0,-1.1822,-1.1842,-1.1853,-1.187,-1.1898,-1.1917,-1.1919,-1.1951,-1.1963,-1.198,-1.2,-1.2013,-1.2043,-1.206,-1.2072,-1.2066,-1.208,-1.2071,-1.2058,-1.2063,-1.2062,-1.206,-1.2057,-1.2056,-1.2071,-1.2071,-1.2071,0,-1.1806,-1.183,-1.1856,-1.187,-1.1883,-1.1909,-1.1919,-1.1935,-1.1966,-1.1974,-1.1981,-1.2017,-1.2036,-1.2053,-1.2051,-1.2061,-1.2063,-1.2067,-1.206,-1.2059,-1.2058,-1.2055,-1.2054,-1.2069,-1.2069,-1.207,-1.207,0,-1.1809,-1.1825,-1.183,-1.186,-1.1873,-1.1885,-1.1912,-1.1922,-1.1937,-1.1955,-1.1971,-1.1995,-1.2017,-1.2022,-1.2037,-1.2041,-1.2044,-1.2055,-1.2066,-1.2054,-1.2052,-1.2051,-1.2067,-1.2068,-1.2068,-1.2069,0,0,-1.1781,-1.1824,-1.1826,-1.1839,-1.187,-1.1883,-1.1895,-1.1917,-1.1925,-1.1945,-1.1955,-1.1979,-1.1989,-1.2003,-1.202,-1.2024,-1.2016,-1.2035,-1.2036,-1.203,-1.202,-1.2011,-1.2009,-1.2026,-1.2026,-1.2026,-1.2018,0,-1.1775,-1.1799,-1.1822,-1.1837,-1.1851,-1.1875,-1.1886,-1.1905,-1.1922,-1.1936,-1.1954,-1.197,-1.1983,-1.1991,-1.1997,-1.2016,-1.2015,-1.2017,-1.2035,-1.2035,-1.2027,-1.2008,-1.1999,-1.199,-1.2017,-1.2017,-1.2017,0,-1.177,-1.179,-1.1806,-1.1835,-1.1842,-1.1851,-1.1872,-1.1886,-1.1908,-1.1919,-1.1934,-1.1952,-1.1964,-1.1975,-1.1992,-1.1993,-1.2002,-1.2012,-1.2012,-1.2014,-1.2025,-1.2009,-1.1988,-1.1986,-1.2016,-1.2016,-1.2016,0,-1.1747,-1.1777,-1.1791,-1.1801,-1.1836,-1.1841,-1.1855,-1.1878,-1.1889,-1.1907,-1.1915,-1.1934,-1.1944,-1.1958,-1.198,-1.1986,-1.1994,-1.2007,-1.2004,-1.2003,-1.2004,-1.2003,-1.1983,-1.2011,-1.2011,-1.2011,-1.2011,0,-1.1737,-1.1746,-1.1781,-1.1789,-1.1799,-1.1825,-1.1834,-1.185,-1.187,-1.1881,-1.1903,-1.1912,-1.1941,-1.1953,-1.1971,-1.1981,-1.1986,-1.1995,-1.1999,-1.1993,-1.1991,-1.1998,-1.1999,-1.2011,-1.2011,-1.2011,-1.2011,0,-1.1713,-1.1737,-1.1753,-1.1783,-1.1791,-1.1797,-1.1823,-1.1831,-1.1849,-1.1862,-1.1867,-1.1894,-1.191,-1.1933,-1.1956,-1.1967,-1.1975,-1.1983,-1.1967,-1.197,-1.1965,-1.1964,-1.1947,-1.1945,-1.1975,-1.1975,-1.1975,0,-1.1705,-1.1712,-1.1743,-1.1752,-1.1766,-1.178,-1.1791,-1.1816,-1.1827,-1.1852,-1.1857,-1.1874,-1.189,-1.1914,-1.1935,-1.1952,-1.196,-1.1952,-1.1963,-1.1955,-1.1958,-1.1957,-1.1957,-1.195,-1.1949,-1.1949,-1.1949,0,-1.1687,-1.1698,-1.1714,-1.1733,-1.1746,-1.1763,-1.178,-1.1786,-1.1814,-1.1825,-1.1842,-1.1853,-1.1876,-1.1893,-1.1913,-1.1927,-1.1942,-1.1945,-1.1945,-1.1938,-1.1928,-1.1932,-1.196,-1.1946,-1.1946,-1.1946,-1.1946,-1.1946,-1.167,-1.1677,-1.1699,-1.1716,-1.1731,-1.1747,-1.1756,-1.1774,-1.1788,-1.1809,-1.1823,-1.1838,-1.1858,-1.1887,-1.1899,-1.1911,-1.1918,-1.1918,-1.1918,-1.1917,-1.1914,-1.1927,-1.1915,-1.1915,-1.1915,-1.1915,-1.1915,0,-1.1652,-1.1668,-1.1682,-1.1706,-1.1718,-1.1732,-1.1751,-1.1761,-1.1774,-1.1792,-1.1806,-1.1824,-1.184,-1.1862,-1.1879,-1.1884,-1.1891,-1.1888,-1.1887,-1.189,-1.1908,-1.1906,-1.1881,-1.1881,-1.1881,-1.1881,-1.1881,-1.1882,-1.1645,-1.1657,-1.167,-1.1689,-1.1705,-1.172,-1.173,-1.1743,-1.1758,-1.1777,-1.179,-1.1805,-1.1824,-1.1842,-1.1857,-1.1863,-1.1867,-1.1861,-1.1869,-1.1886,-1.1889,-1.1892,-1.189,-1.1862,-1.1862,-1.185,-1.185,-1.185]}]]